• In Hungary
  • List of Countries
  • For 7 days
  • Water Temperature
  • Satellite Maps
  • Weather Map
  • News
  • Weather Widgets
  • user-avatar
    Login

    Hourly Weather Mstowo

    Today, 20 October, Friday

    Time Temperature Precipitation Wind Pressure Humidity
    00:00 +10°C° 0 mm 2 mps 752 mmHg 91%
    01:00 +10°C° 0 mm 2 mps 752 mmHg 93%
    02:00 +10°C° 0 mm 2 mps 752 mmHg 93%
    03:00 +10°C° 0 mm 2 mps 752 mmHg 94%
    04:00 +10°C° 0 mm 2 mps 752 mmHg 94%
    05:00 +10°C° 0 mm 2 mps 752 mmHg 94%
    06:00 +10°C° 0 mm 2 mps 752 mmHg 95%
    07:00 +10°C° 0 mm 2 mps 752 mmHg 95%
    08:00 +11°C° 0 mm 3 mps 752 mmHg 89%
    09:00 +13°C° 0 mm 3 mps 752 mmHg 83%
    10:00 +14°C° 0 mm 3 mps 752 mmHg 77%
    11:00 +17°C° 0 mm 3 mps 752 mmHg 73%
    12:00 +18°C° 0 mm 3 mps 751 mmHg 69%
    13:00 +19°C° 0 mm 3 mps 751 mmHg 65%
    14:00 +18°C° 0 mm 3 mps 751 mmHg 67%
    15:00 +18°C° 0 mm 2 mps 751 mmHg 70%
    16:00 +17°C° 0 mm 2 mps 751 mmHg 72%
    17:00 +16°C° 0 mm 2 mps 751 mmHg 75%
    18:00 +16°C° 0 mm 3 mps 751 mmHg 77%
    19:00 +14°C° 0 mm 3 mps 751 mmHg 79%
    20:00 +14°C° 0 mm 3 mps 751 mmHg 80%
    21:00 +13°C° 0 mm 3 mps 751 mmHg 80%
    22:00 +13°C° 0 mm 3 mps 751 mmHg 81%
    23:00 +13°C° 0 mm 3 mps 751 mmHg 80%

    Tomorrow, 21 October, Saturday

    Time Temperature Precipitation Wind Pressure Humidity
    00:00 +14°C° 0 mm 2 mps 751 mmHg 79%
    01:00 +14°C° 0 mm 2 mps 751 mmHg 79%
    02:00 +14°C° 0.1 mm 2 mps 751 mmHg 80%
    03:00 +14°C° 0.1 mm 2 mps 750 mmHg 81%
    04:00 +13°C° 0.1 mm 2 mps 750 mmHg 82%
    05:00 +13°C° 0.1 mm 2 mps 750 mmHg 83%
    06:00 +13°C° 0.1 mm 2 mps 750 mmHg 83%
    07:00 +13°C° 0.1 mm 2 mps 750 mmHg 84%
    08:00 +13°C° 0.2 mm 3 mps 750 mmHg 80%
    09:00 +14°C° 0.2 mm 3 mps 750 mmHg 77%
    10:00 +14°C° 0.2 mm 3 mps 750 mmHg 73%
    11:00 +15°C° 0.1 mm 4 mps 750 mmHg 70%
    12:00 +15°C° 0.1 mm 4 mps 750 mmHg 67%
    13:00 +15°C° 0.1 mm 4 mps 750 mmHg 64%
    14:00 +16°C° 0 mm 3 mps 750 mmHg 68%
    15:00 +14°C° 0 mm 3 mps 750 mmHg 71%
    16:00 +15°C° 0 mm 2 mps 750 mmHg 74%
    17:00 +14°C° 0 mm 2 mps 750 mmHg 78%
    18:00 +13°C° 0 mm 2 mps 750 mmHg 83%
    19:00 +12°C° 0 mm 1 mps 750 mmHg 88%
    20:00 +12°C° 0 mm 1 mps 750 mmHg 89%
    21:00 +11°C° 0 mm 1 mps 750 mmHg 90%
    22:00 +11°C° 0 mm 1 mps 750 mmHg 91%
    23:00 +11°C° 0 mm 1 mps 750 mmHg 91%

    Day after tomorrow, 22 October, Sunday

    Time Temperature Precipitation Wind Pressure Humidity
    00:00 +11°C° 0 mm 1 mps 750 mmHg 91%
    01:00 +10°C° 0 mm 1 mps 750 mmHg 92%
    02:00 +10°C° 0 mm 1 mps 750 mmHg 92%
    03:00 +10°C° 0 mm 1 mps 750 mmHg 92%
    04:00 +9°C° 0 mm 2 mps 750 mmHg 92%
    05:00 +9°C° 0 mm 2 mps 750 mmHg 91%
    06:00 +9°C° 0 mm 2 mps 749 mmHg 90%
    07:00 +9°C° 0 mm 3 mps 749 mmHg 89%
    08:00 +10°C° 0.1 mm 3 mps 749 mmHg 85%
    09:00 +11°C° 0.1 mm 3 mps 750 mmHg 81%
    10:00 +12°C° 0.1 mm 3 mps 750 mmHg 77%
    11:00 +13°C° 0.4 mm 2 mps 749 mmHg 80%
    12:00 +13°C° 0.4 mm 2 mps 749 mmHg 82%
    13:00 +13°C° 0.4 mm 2 mps 749 mmHg 85%
    14:00 +12°C° 0.4 mm 2 mps 749 mmHg 87%
    15:00 +12°C° 0.4 mm 2 mps 749 mmHg 90%
    16:00 +12°C° 0.4 mm 1 mps 749 mmHg 92%
    17:00 +12°C° 0.1 mm 2 mps 749 mmHg 93%
    18:00 +10°C° 0.1 mm 2 mps 749 mmHg 94%
    19:00 +10°C° 0.1 mm 2 mps 749 mmHg 95%
    20:00 +10°C° 0.1 mm 2 mps 749 mmHg 94%
    21:00 +10°C° 0.1 mm 2 mps 749 mmHg 93%
    22:00 +10°C° 0.1 mm 2 mps 749 mmHg 93%
    23:00 +10°C° 0.1 mm 2 mps 749 mmHg 92%

    23 October, Monday

    Time Temperature Precipitation Wind Pressure Humidity
    00:00 +9°C° 0.1 mm 2 mps 749 mmHg 92%
    01:00 +9°C° 0.1 mm 2 mps 749 mmHg 91%
    02:00 +9°C° 0.2 mm 2 mps 748 mmHg 91%
    03:00 +9°C° 0.2 mm 2 mps 748 mmHg 91%
    04:00 +9°C° 0.2 mm 3 mps 748 mmHg 92%
    05:00 +9°C° 0.4 mm 3 mps 748 mmHg 92%
    06:00 +9°C° 0.4 mm 3 mps 748 mmHg 92%
    07:00 +9°C° 0.4 mm 3 mps 748 mmHg 92%
    08:00 +9°C° 0.4 mm 3 mps 748 mmHg 90%
    09:00 +9°C° 0.4 mm 3 mps 748 mmHg 89%
    10:00 +9°C° 0.4 mm 3 mps 748 mmHg 87%
    11:00 +10°C° 0.5 mm 3 mps 748 mmHg 86%
    12:00 +10°C° 0.5 mm 3 mps 748 mmHg 85%
    13:00 +10°C° 0.5 mm 3 mps 748 mmHg 84%
    14:00 +10°C° 0.6 mm 3 mps 748 mmHg 85%
    15:00 +10°C° 0.6 mm 3 mps 749 mmHg 87%
    16:00 +10°C° 0.6 mm 3 mps 749 mmHg 89%
    17:00 +10°C° 0.7 mm 3 mps 749 mmHg 90%
    18:00 +9°C° 0.7 mm 3 mps 749 mmHg 91%
    19:00 +9°C° 0.7 mm 3 mps 750 mmHg 92%
    20:00 +9°C° 0.7 mm 3 mps 750 mmHg 92%
    21:00 +9°C° 0.7 mm 3 mps 750 mmHg 93%
    22:00 +9°C° 0.7 mm 3 mps 750 mmHg 93%
    23:00 +9°C° 0.6 mm 3 mps 750 mmHg 93%

    24 October, Tuesday

    Time Temperature Precipitation Wind Pressure Humidity
    00:00 +9°C° 0.6 mm 3 mps 751 mmHg 93%
    01:00 +9°C° 0.6 mm 3 mps 751 mmHg 93%
    02:00 +9°C° 0.5 mm 3 mps 751 mmHg 93%
    03:00 +8°C° 0.5 mm 3 mps 751 mmHg 93%
    04:00 +8°C° 0.5 mm 3 mps 751 mmHg 94%
    05:00 +8°C° 0.3 mm 3 mps 752 mmHg 94%
    06:00 +8°C° 0.3 mm 3 mps 752 mmHg 94%
    07:00 +8°C° 0.3 mm 3 mps 752 mmHg 94%
    08:00 +9°C° 0.1 mm 3 mps 753 mmHg 90%
    09:00 +9°C° 0.1 mm 3 mps 753 mmHg 86%
    10:00 +10°C° 0.1 mm 3 mps 754 mmHg 83%
    11:00 +10°C° 0 mm 3 mps 754 mmHg 80%
    12:00 +11°C° 0 mm 3 mps 754 mmHg 77%
    13:00 +11°C° 0 mm 3 mps 754 mmHg 74%
    14:00 +12°C° 0 mm 2 mps 754 mmHg 75%
    15:00 +12°C° 0 mm 2 mps 755 mmHg 76%
    16:00 +12°C° 0 mm 2 mps 755 mmHg 78%
    17:00 +11°C° 0 mm 1 mps 755 mmHg 80%
    18:00 +10°C° 0 mm 1 mps 756 mmHg 82%
    19:00 +10°C° 0 mm 1 mps 756 mmHg 85%
    20:00 +9°C° 0 mm 1 mps 756 mmHg 86%
    21:00 +9°C° 0 mm 1 mps 756 mmHg 88%
    22:00 +8°C° 0 mm 1 mps 757 mmHg 89%
    23:00 +8°C° 0 mm 1 mps 757 mmHg 90%

    25 October, Wednesday

    Time Temperature Precipitation Wind Pressure Humidity
    00:00 +8°C° 0 mm 1 mps 757 mmHg 91%
    01:00 +8°C° 0 mm 1 mps 758 mmHg 92%
    02:00 +7°C° 0 mm 1 mps 758 mmHg 92%
    03:00 +7°C° 0 mm 1 mps 758 mmHg 93%
    04:00 +7°C° 0 mm 1 mps 758 mmHg 93%
    05:00 +7°C° 0 mm 1 mps 758 mmHg 93%
    06:00 +7°C° 0 mm 1 mps 758 mmHg 93%
    07:00 +7°C° 0 mm 1 mps 758 mmHg 93%
    08:00 +8°C° 0 mm 1 mps 758 mmHg 88%
    09:00 +9°C° 0 mm 2 mps 759 mmHg 83%
    10:00 +10°C° 0 mm 2 mps 759 mmHg 78%
    11:00 +12°C° 0 mm 2 mps 759 mmHg 74%
    12:00 +12°C° 0 mm 2 mps 758 mmHg 71%
    13:00 +12°C° 0 mm 3 mps 758 mmHg 68%
    14:00 +11°C° 0 mm 3 mps 758 mmHg 70%
    15:00 +11°C° 0 mm 3 mps 758 mmHg 72%
    16:00 +11°C° 0 mm 3 mps 758 mmHg 74%
    17:00 +10°C° 0 mm 3 mps 758 mmHg 75%
    18:00 +10°C° 0 mm 4 mps 757 mmHg 75%
    19:00 +10°C° 0 mm 4 mps 757 mmHg 76%
    20:00 +10°C° 0.3 mm 4 mps 757 mmHg 76%
    21:00 +9°C° 0.3 mm 5 mps 757 mmHg 77%
    22:00 +9°C° 0.3 mm 5 mps 757 mmHg 77%
    23:00 +9°C° 0.5 mm 5 mps 757 mmHg 80%
    Show more